Weather History for Manteo, NC

Change the Weather History Date:

Thursday, December 8, 2011

  Actual Average Record
Temperature  
Mean Temperature 48 °F -  
Max Temperature 55 °F 55 °F 77 °F (1978)
Min Temperature 42 °F 43 °F 28 °F (1984)
Degree Days  
Heating Degree Days 16    
Moisture  
Dew Point 34 °F    
Average Humidity 62    
Maximum Humidity 82    
Minimum Humidity 41    
Precipitation  
Precipitation 0.00 in - - ()
Sea Level Pressure  
Sea Level Pressure 30.18 in    
Wind  
Wind Speed 11 mph (North)    
Max Wind Speed 17 mph    
Max Gust Speed 28 mph    
Visibility 10 miles    
Events Rain    
Averages and records for this station are not official NWS values.
T = Trace of Precipitation, MM = Missing Value Source: NWS Daily Summary

Daily Weather History Graph

Daily Weather History Graph

Search for Another Location

Airport:

Trip Planner

Search our weather history database for the weather conditions in past years. The results will help you decide how hot, cold, wet, or windy it might be!

Date:

Astronomy

Dec. 08, 2011 Rise Set
Actual Time 7:00 AM EST 4:48 PM EST
Civil Twilight 6:32 AM EST 5:17 PM EST
Nautical Twilight 6:00 AM EST 5:48 PM EST
Astronomical Twilight 5:29 AM EST 6:20 PM EST
Moon 3:25 PM EST (12/8) 5:11 AM EST (12/8)
Length of Visible Light 10h 44m
Length of Day
9h 48m
Waxing Gibbous, 97% of the Moon is Illuminated
Dec 8
Waxing Gibbous
Dec 10
Full
Dec 17
Last Quarter
Dec 24
New
Jan 1
First Quarter

Hourly Weather History & Observations

Time (EST) Temp. Windchill Dew Point Humidity Pressure Visibility Wind Dir Wind Speed Gust Speed Precip Events Conditions
12:15 AM 55.4 °F - 50.0 °F 82% 29.75 in 10.0 mi West 15.0 mph 24.2 mph N/A   Mostly Cloudy
12:35 AM 55.4 °F - 48.2 °F 77% 29.79 in 10.0 mi NW 12.7 mph 26.5 mph N/A Rain Light Rain
12:55 AM 51.8 °F - 46.4 °F 82% 29.81 in 7.0 mi NNW 13.8 mph 23.0 mph N/A Rain Rain
1:15 AM 50.0 °F - 44.6 °F 82% 29.84 in 10.0 mi NNW 17.3 mph 26.5 mph N/A   Light Drizzle
1:55 AM 48.2 °F - 41.0 °F 76% 29.90 in 10.0 mi NNW 13.8 mph 26.5 mph N/A   Overcast
2:15 AM 46.4 °F 39.5 °F 41.0 °F 81% 29.92 in 10.0 mi NNW 17.3 mph 27.6 mph N/A   Overcast
2:35 AM 46.4 °F 41.1 °F 37.4 °F 71% 29.94 in 10.0 mi NNW 11.5 mph 26.5 mph N/A   Overcast
2:55 AM 46.4 °F 40.1 °F 37.4 °F 71% 29.96 in 10.0 mi NNW 15.0 mph 27.6 mph N/A   Overcast
3:15 AM 46.4 °F 40.1 °F 37.4 °F 71% 29.98 in 10.0 mi NNW 15.0 mph 26.5 mph N/A   Overcast
3:35 AM 46.4 °F 39.8 °F 35.6 °F 66% 30.00 in 10.0 mi NNW 16.1 mph 27.6 mph N/A   Mostly Cloudy
3:55 AM 44.6 °F 38.4 °F 35.6 °F 71% 30.01 in 10.0 mi NNW 12.7 mph 23.0 mph N/A   Mostly Cloudy
4:15 AM 44.6 °F 39.2 °F 35.6 °F 71% 30.02 in 10.0 mi NW 10.4 mph 23.0 mph N/A   Mostly Cloudy
4:35 AM 44.6 °F 38.1 °F 35.6 °F 71% 30.03 in 10.0 mi NW 13.8 mph 21.9 mph N/A   Scattered Clouds
4:55 AM 44.6 °F 39.2 °F 35.6 °F 71% 30.04 in 10.0 mi NNW 10.4 mph 20.7 mph N/A   Scattered Clouds
5:15 AM 44.6 °F 40.2 °F 35.6 °F 71% 30.06 in 10.0 mi NNW 8.1 mph - N/A   Scattered Clouds
5:35 AM 44.6 °F 40.2 °F 35.6 °F 71% 30.07 in 10.0 mi NNW 8.1 mph 16.1 mph N/A   Scattered Clouds
5:55 AM 44.6 °F 40.2 °F 35.6 °F 71% 30.09 in 10.0 mi NNW 8.1 mph 20.7 mph N/A   Clear
6:15 AM 44.6 °F 39.7 °F 33.8 °F 66% 30.10 in 10.0 mi NNW 9.2 mph - N/A   Clear
6:35 AM 44.6 °F 40.7 °F 33.8 °F 66% 30.12 in 10.0 mi NNW 6.9 mph - N/A   Scattered Clouds
6:55 AM 44.6 °F 38.8 °F 33.8 °F 66% 30.14 in 10.0 mi NNW 11.5 mph 17.3 mph N/A   Clear
7:15 AM 44.6 °F 40.2 °F 33.8 °F 66% 30.17 in 10.0 mi NNW 8.1 mph - N/A   Clear
7:35 AM 44.6 °F 38.4 °F 33.8 °F 66% 30.18 in 10.0 mi NNW 12.7 mph 18.4 mph N/A   Clear
7:55 AM 44.6 °F 38.4 °F 33.8 °F 66% 30.19 in 10.0 mi NNW 12.7 mph 18.4 mph N/A   Clear
8:15 AM 44.6 °F 38.1 °F 33.8 °F 66% 30.20 in 10.0 mi NNW 13.8 mph 19.6 mph N/A   Clear
8:35 AM 46.4 °F 41.1 °F 33.8 °F 62% 30.20 in 10.0 mi NNW 11.5 mph 21.9 mph N/A   Clear
8:55 AM 46.4 °F 41.1 °F 33.8 °F 62% 30.22 in 10.0 mi North 11.5 mph 19.6 mph N/A   Clear
9:15 AM 46.4 °F 41.5 °F 33.8 °F 62% 30.23 in 10.0 mi North 10.4 mph 16.1 mph N/A   Clear
9:35 AM 46.4 °F 41.9 °F 33.8 °F 62% 30.23 in 10.0 mi NNW 9.2 mph 18.4 mph N/A   Clear
9:55 AM 46.4 °F 40.7 °F 33.8 °F 62% 30.24 in 10.0 mi North 12.7 mph 17.3 mph N/A   Clear
10:15 AM 48.2 °F - 33.8 °F 58% 30.24 in 10.0 mi NNW 6.9 mph 16.1 mph N/A   Clear
10:35 AM 48.2 °F - 33.8 °F 58% 30.25 in 10.0 mi North 10.4 mph 17.3 mph N/A   Scattered Clouds
10:55 AM 50.0 °F - 32.0 °F 50% 30.26 in 10.0 mi North 8.1 mph 18.4 mph N/A   Scattered Clouds
11:15 AM 50.0 °F - 32.0 °F 50% 30.26 in 10.0 mi NNE 12.7 mph - N/A   Clear
11:35 AM 50.0 °F - 30.2 °F 47% 30.26 in 10.0 mi North 12.7 mph 19.6 mph N/A   Clear
11:55 AM 50.0 °F - 30.2 °F 47% 30.25 in 10.0 mi North 11.5 mph 18.4 mph N/A   Clear
12:15 PM 50.0 °F - 30.2 °F 47% 30.24 in 10.0 mi North 13.8 mph 19.6 mph N/A   Clear
12:35 PM 50.0 °F - 30.2 °F 47% 30.25 in 10.0 mi North 12.7 mph 19.6 mph N/A   Clear
12:55 PM 50.0 °F - 28.4 °F 43% 30.26 in 10.0 mi North 9.2 mph 16.1 mph N/A   Clear
1:15 PM 50.0 °F - 28.4 °F 43% 30.27 in 10.0 mi North 11.5 mph 18.4 mph N/A   Clear
1:35 PM 51.8 °F - 28.4 °F 41% 30.27 in 10.0 mi NNW 9.2 mph - N/A   Clear
1:55 PM 50.0 °F - 28.4 °F 43% 30.27 in 10.0 mi North 8.1 mph - N/A   Clear
2:15 PM 50.0 °F - 28.4 °F 43% 30.26 in 10.0 mi North 8.1 mph - N/A   Clear
2:35 PM 50.0 °F - 28.4 °F 43% 30.24 in 10.0 mi North 8.1 mph - N/A   Clear
2:55 PM 50.0 °F - 30.2 °F 47% 30.24 in 10.0 mi NNE 10.4 mph - N/A   Clear
3:15 PM 50.0 °F - 30.2 °F 47% 30.24 in 10.0 mi North 9.2 mph - N/A   Clear
4:15 PM 46.4 °F 41.9 °F 32.0 °F 57% 30.26 in 10.0 mi NNE 9.2 mph - N/A   Clear
4:35 PM 46.4 °F 43.5 °F 32.0 °F 57% 30.27 in 10.0 mi NNE 5.8 mph - N/A   Clear
5:15 PM 44.6 °F 41.4 °F 32.0 °F 61% 30.28 in 10.0 mi NNE 5.8 mph - N/A   Clear
5:35 PM 46.4 °F 42.9 °F 32.0 °F 57% 30.29 in 10.0 mi NNE 6.9 mph - N/A   Clear
5:55 PM 44.6 °F 40.7 °F 32.0 °F 61% 30.30 in 10.0 mi NNE 6.9 mph - N/A   Scattered Clouds
6:15 PM 46.4 °F 42.9 °F 32.0 °F 57% 30.31 in 10.0 mi NNE 6.9 mph - N/A   Scattered Clouds
6:35 PM 44.6 °F 40.7 °F 33.8 °F 66% 30.32 in 10.0 mi NNE 6.9 mph - N/A   Clear
6:55 PM 44.6 °F 43.1 °F 33.8 °F 66% 30.32 in 10.0 mi NNE 3.5 mph - N/A   Clear
7:15 PM 44.6 °F 41.4 °F 33.8 °F 66% 30.33 in 10.0 mi NNE 5.8 mph - N/A   Clear
7:35 PM 44.6 °F 43.1 °F 33.8 °F 66% 30.35 in 10.0 mi NNE 3.5 mph - N/A   Scattered Clouds
8:15 PM 44.6 °F 41.4 °F 33.8 °F 66% 30.36 in 10.0 mi NE 5.8 mph - N/A   Clear
8:35 PM 44.6 °F 42.2 °F 33.8 °F 66% 30.36 in 10.0 mi NE 4.6 mph - N/A   Clear
8:55 PM 44.6 °F 43.1 °F 33.8 °F 66% 30.36 in 10.0 mi NE 3.5 mph - N/A   Clear
9:15 PM 44.6 °F 43.1 °F 33.8 °F 66% 30.36 in 10.0 mi NE 3.5 mph - N/A   Clear
9:35 PM 42.8 °F 40.1 °F 33.8 °F 70% 30.37 in 10.0 mi NE 4.6 mph - N/A   Clear
9:55 PM 44.6 °F 43.1 °F 33.8 °F 66% 30.36 in 10.0 mi NE 3.5 mph - N/A   Clear
10:15 PM 42.8 °F - 33.8 °F 70% 30.36 in 10.0 mi Calm Calm - N/A   Clear
10:35 PM 42.8 °F - 33.8 °F 70% 30.36 in 10.0 mi Calm Calm - N/A   Clear
10:55 PM 42.8 °F - 33.8 °F 70% 30.35 in 10.0 mi Calm Calm - N/A   Clear
11:15 PM 44.6 °F 42.2 °F 35.6 °F 71% 30.35 in 10.0 mi East 4.6 mph - N/A   Clear
11:35 PM 46.4 °F 43.5 °F 35.6 °F 66% 30.34 in 10.0 mi East 5.8 mph - N/A   Clear
11:55 PM 46.4 °F 43.5 °F 35.6 °F 66% 30.34 in 10.0 mi ENE 5.8 mph - N/A   Clear